Klawock, AK

4:48 PM AKDT on September 23, 2017 (GMT -0800)
Klawock

Weather History for PAKW - December, 2012

Change the Weather History Date:

Saturday, December 8, 2012

  Actual Average Record
Temperature  
Mean Temperature 31 °F -  
Max Temperature 36 °F 38 °F 60 °F (2005)
Min Temperature 26 °F 31 °F 26 °F (2012)
Degree Days  
Heating Degree Days 34    
Moisture  
Dew Point 30 °F    
Average Humidity 91    
Maximum Humidity 100    
Minimum Humidity 82    
Precipitation  
Precipitation 0.05 in - - ()
Sea Level Pressure  
Sea Level Pressure 30.02 in    
Wind  
Wind Speed 3 mph (NNE)    
Max Wind Speed 9 mph    
Max Gust Speed 16 mph    
Visibility 8 miles    
Events Rain , Snow    
Averages and records for this station are not official NWS values.
T = Trace of Precipitation, MM = Missing Value Source: NWS Daily Summary

Daily Weather History Graph

Daily Weather History Graph

Search for Another Location

Airport or City:

Trip Planner

Search our weather history database for the weather conditions in past years. The results will help you decide how hot, cold, wet, or windy it might be!

Date:

Astronomy

Dec. 08, 2012 Rise Set
Actual Time 8:07 AM AKST 3:21 PM AKST
Civil Twilight 7:22 AM AKST 4:06 PM AKST
Nautical Twilight 6:34 AM AKST 4:54 PM AKST
Astronomical Twilight 5:49 AM AKST 5:39 PM AKST
Moon 1:54 AM AKST (12/8) 12:36 PM AKST (12/8)
Length of Visible Light 8h 44m
Length of Day
7h 13m
Waning Crescent, 27% of the Moon is Illuminated
Dec 8
Waning Crescent
Dec 12
New
Dec 19
First Quarter
Dec 28
Full
Jan 4
Last Quarter

Hourly Weather History & Observations

Time (AKST) Temp. Windchill Dew Point Humidity Pressure Visibility Wind Dir Wind Speed Gust Speed Precip Events Conditions
12:53 AM 26.1 °F - 24.1 °F 92% 30.12 in 10.0 mi Calm Calm - N/A   Clear
1:53 AM 26.1 °F - 24.1 °F 92% 30.14 in 10.0 mi Calm Calm - N/A   Clear
3:53 AM 27.0 °F - 25.0 °F 92% 30.14 in 10.0 mi Calm Calm - N/A   Clear
4:53 AM 28.0 °F 24.2 °F 25.0 °F 88% 30.14 in 10.0 mi ENE 3.5 mph - N/A   Clear
5:53 AM 28.9 °F 22.8 °F 27.0 °F 92% 30.14 in 10.0 mi NE 5.8 mph - N/A   Clear
6:53 AM 28.9 °F 21.9 °F 27.0 °F 92% 30.14 in 10.0 mi NE 6.9 mph - N/A   Clear
7:53 AM 30.0 °F 22.4 °F 28.0 °F 92% 30.14 in 10.0 mi NNE 8.1 mph - N/A   Partly Cloudy
8:53 AM 30.0 °F 21.7 °F 28.0 °F 92% 30.14 in 10.0 mi NNE 9.2 mph - N/A   Partly Cloudy
9:53 AM 30.9 °F 24.3 °F 28.9 °F 92% 30.14 in 10.0 mi NE 6.9 mph - N/A   Overcast
10:53 AM 32.0 °F 27.5 °F 30.0 °F 92% 30.16 in 10.0 mi NE 4.6 mph - N/A   Overcast
11:53 AM 33.1 °F 28.7 °F 30.0 °F 89% 30.14 in 10.0 mi NNE 4.6 mph - N/A   Overcast
12:14 PM 33.8 °F 27.7 °F 30.2 °F 87% 30.13 in 10.0 mi NNE 6.9 mph - N/A   Overcast
12:53 PM 33.1 °F 25.5 °F 30.9 °F 92% 30.13 in 10.0 mi NNE 9.2 mph - N/A   Overcast
1:53 PM 33.1 °F 28.7 °F 30.9 °F 92% 30.13 in 10.0 mi ENE 4.6 mph - N/A   Overcast
2:53 PM 34.0 °F 29.8 °F 30.9 °F 89% 30.11 in 10.0 mi NNE 4.6 mph - N/A   Overcast
3:53 PM 34.0 °F 28.8 °F 30.9 °F 89% 30.08 in 10.0 mi NNE 5.8 mph - 0.00 in   Overcast
4:53 PM 34.0 °F 28.0 °F 30.9 °F 89% 30.05 in 10.0 mi Variable 6.9 mph - 0.00 in Snow Light Snow
5:53 PM 34.0 °F - 30.9 °F 89% 30.03 in 10.0 mi Calm Calm - 0.00 in   Overcast
6:53 PM 34.0 °F 29.8 °F 32.0 °F 92% 30.00 in 7.0 mi NNE 4.6 mph - 0.00 in Snow Light Snow
7:03 PM 33.8 °F 28.6 °F 32.0 °F 93% 29.98 in 5.0 mi North 5.8 mph - 0.00 in Snow Light Snow
7:53 PM 34.0 °F - 32.0 °F 92% 29.93 in 5.0 mi Calm Calm - 0.00 in Snow Light Snow
8:11 PM 33.8 °F - 32.0 °F 93% 29.91 in 10.0 mi Calm Calm - 0.00 in   Overcast
8:53 PM 36.0 °F 32.1 °F 30.9 °F 82% 29.87 in 10.0 mi Variable 4.6 mph - 0.00 in   Overcast
9:53 PM 34.0 °F 29.8 °F 32.0 °F 92% 29.88 in 5.0 mi Variable 4.6 mph - 0.00 in Snow Light Snow
10:25 PM 33.8 °F 30.8 °F 32.0 °F 93% 29.85 in 2.5 mi West 3.5 mph - 0.01 in Rain Rain
10:53 PM 34.0 °F 31.0 °F 32.0 °F 92% 29.85 in 2.5 mi NE 3.5 mph - 0.02 in Rain Rain
11:00 PM 33.8 °F - 32.0 °F 93% 29.84 in 3.0 mi Calm Calm - 0.00 in Snow Light Snow
11:11 PM 33.8 °F 27.0 °F 32.0 °F 93% 29.82 in 4.0 mi NNE 8.1 mph 16.1 mph 0.01 in Snow Light Snow
11:19 PM 33.8 °F - 32.0 °F 93% 29.82 in 4.0 mi Calm Calm - 0.01 in Snow Light Snow
11:42 PM 33.8 °F - 33.8 °F 100% 29.83 in 5.0 mi Calm Calm - 0.02 in Rain Light Rain
11:53 PM 35.1 °F 30.1 °F 33.1 °F 92% 29.83 in 5.0 mi Variable 5.8 mph - 0.03 in Rain Light Rain